Location: Berg
(47.2344°N, 9.5296°E)
Time: 23:00:40
(UTC+00:00)

USA 267 - Pass Details

Date: 24 January 2021
Orbit: 1099 x 1108 km, 123.0° (Epoch: 03 March)

Event Time Altitude Azimuth Distance (km) Brightness Sun altitude
Exits shadow 18:41:56 30° 146° (SE) 1,862 4.2 -25.2°
Drops below altitude 10° 18:46:32 10° 189° (S) 2,952 5.6 -26.0°
Sets 18:49:20 0° 200° (SSW) 3,907 6.4 -26.5°
